TimePDT,TemperatureF,Dew PointF,Humidity,Sea Level PressureIn,VisibilityMPH,Wind Direction,Wind SpeedMPH,Gust SpeedMPH,PrecipitationIn,Events,Conditions,WindDirDegrees,DateUTC
12:52 AM,68.0,48.9,50,29.81,10.0,NW,8.1,-,N/A,,Clear,320,2013-07-08 07:52:00
1:52 AM,66.0,50.0,56,29.81,10.0,NW,8.1,-,N/A,,Clear,310,2013-07-08 08:52:00
2:52 AM,66.0,50.0,56,29.82,10.0,NNW,9.2,-,N/A,,Clear,330,2013-07-08 09:52:00
3:52 AM,63.0,50.0,63,29.84,10.0,NNW,4.6,-,N/A,,Clear,330,2013-07-08 10:52:00
4:52 AM,61.0,48.9,64,29.85,10.0,NNW,4.6,-,N/A,,Clear,330,2013-07-08 11:52:00
5:52 AM,63.0,50.0,63,29.87,10.0,Calm,Calm,-,N/A,,Clear,0,2013-07-08 12:52:00
6:52 AM,66.9,51.1,57,29.89,10.0,Calm,Calm,-,N/A,,Clear,0,2013-07-08 13:52:00
7:52 AM,72.0,50.0,46,29.91,10.0,Calm,Calm,-,N/A,,Clear,0,2013-07-08 14:52:00
8:52 AM,75.9,48.9,38,29.92,10.0,Variable,3.5,-,N/A,,Clear,0,2013-07-08 15:52:00
9:52 AM,79.0,48.0,34,29.92,10.0,Variable,4.6,-,N/A,,Clear,0,2013-07-08 16:52:00
10:52 AM,82.0,46.9,29,29.93,10.0,North,4.6,-,N/A,,Clear,10,2013-07-08 17:52:00
11:52 AM,87.1,46.9,25,29.93,10.0,North,5.8,16.1,N/A,,Clear,10,2013-07-08 18:52:00
12:52 PM,86.0,48.9,28,29.94,10.0,Variable,5.8,-,N/A,,Scattered Clouds,0,2013-07-08 19:52:00
1:52 PM,88.0,48.0,25,29.93,10.0,West,10.4,16.1,N/A,,Mostly Cloudy,270,2013-07-08 20:52:00
2:52 PM,89.1,46.9,23,29.93,10.0,WSW,9.2,-,N/A,,Clear,240,2013-07-08 21:52:00
3:52 PM,88.0,46.9,24,29.93,10.0,South,6.9,-,N/A,,Clear,170,2013-07-08 22:52:00
4:52 PM,89.1,45.0,22,29.93,10.0,SW,8.1,-,N/A,,Clear,220,2013-07-08 23:52:00
5:52 PM,89.1,42.1,19,29.93,10.0,WSW,8.1,-,N/A,,Clear,250,2013-07-09 00:52:00
6:52 PM,88.0,42.1,20,29.93,10.0,WSW,6.9,-,N/A,,Clear,250,2013-07-09 01:52:00
7:52 PM,87.1,43.0,21,29.94,10.0,SSW,5.8,-,N/A,,Clear,210,2013-07-09 02:52:00
8:52 PM,84.0,44.1,25,29.94,10.0,South,4.6,-,N/A,,Clear,180,2013-07-09 03:52:00
9:52 PM,78.1,48.0,35,29.96,10.0,SSE,3.5,-,N/A,,Clear,160,2013-07-09 04:52:00
10:52 PM,79.0,52.0,39,29.98,10.0,SSW,5.8,-,N/A,,Clear,210,2013-07-09 05:52:00
11:52 PM,72.0,52.0,49,30.00,10.0,East,6.9,-,N/A,,Clear,100,2013-07-09 06:52:00